COSMOS 1261 DEB, 12892

Orbit data source: Space-Track

COSMOS 1261 DEB, 12892 is space debris originally from a launch on Tue, 31 Mar 1981 UTC launched from the Plesetsk Missile And Space Complex (PKMTR). Debris objects in space refer to the collection of defunct objects orbiting the Earth. Examples of debris include non-operational satellites, rocket bodies, and fragments generated from explosions, collisions, or faulty payload assembly.

Loading next visibility...
Identifier
12892, 1981-031E
Orbit
Molniya
Country
Flag of CISCIS
Related business
Manufacturer
Unknown
Mission
Spacecraft
Bus & Motor
Unknown
Mass
Unknown
Launch date (UTC)
1981-03-31 (45 years ago)
Launch vehicle
Unknown
Launch site
Plesetsk Missile And Space Complex (PKMTR)
Object type
Payload
Rocket body
Debris
Shape & HBR
Unknown shape, 1.1 m
Radar Cross Section
Large (>1 m²)

Expand to show TLE details & history
Last TLE update: 15 hours ago

TLE from 15 hours ago
0 COSMOS 1261 DEB
1 12892U 81031E   25288.55109125  .00000156  00000-0  20900-2 0  9993
2 12892  62.1513 125.6568 7446517  42.8671 355.6273  2.00161142254501
Epoch: 2025-10-15T13:13Z
TLE epoch observation values (Epoch: 2025-10-15T13:13:34.283Z)
Latitude
0.00041°
Longitude
-97.10025°
Altitude
1,274.526 km
Speed
9.445 km/s
True Right ascension
08h 22m 27s
True Declination
0° 00' 01"
Sunlit
Object was in daylight at epoch
Visualization orbit readout
Latitude
Unknown
Longitude
Unknown
Altitude
Unknown
Speed
Unknown
Apparent Right ascension
Unknown
Apparent Declination
Unknown
Sunlit
N/A
Visualization observer readout
Local Sidereal Time
23:11:47
Azimuth
Unknown
Elevation
Unknown
Doppler factor
Unknown
Orbital elements
Apogee altitude
40,020.864 km
Perigee altitude
412.849 km
Semi-major axis
26,594.994 km
Eccentricity
0.74465
Inclination
62.1513°
RAAN
125.6568°
Arg. of periapsis
42.8671°
True anomaly
318.56588°
Mean anomaly
355.6273°
Eccentric anomaly
343.53382°
Mean motion
0.50043 °/min
Orbital period
719.38 mins
BSTAR
0.00209
Loading maneuver chart data...
Computing Atmospheric mass density...
Loading historical data...
Loading historical data...
Loading historical data...
Loading historical data...
Loading historical data...
Loading historical data...
Loading historical data...

Documentation

Showing up to 5 results
|